South Haven, MI

10:13 AM EST on February 26, 2017 (GMT -0500)
South Haven

Weather History for KLWA - January, 2013

Change the Weather History Date:

Monday, January 7, 2013

  Actual Average (KBEH) Record (KBEH)
Temperature  
Mean Temperature 30 °F -  
Max Temperature 37 °F 31 °F 64 °F (2008)
Min Temperature 24 °F 17 °F -10 °F (1988)
Degree Days  
Heating Degree Days 34    
Moisture  
Dew Point 21 °F    
Average Humidity 68    
Maximum Humidity 90    
Minimum Humidity 41    
Precipitation  
Precipitation 0.00 in - - ()
Sea Level Pressure  
Sea Level Pressure 30.23 in    
Wind  
Wind Speed 7 mph (SSW)    
Max Wind Speed 16 mph    
Max Gust Speed 24 mph    
Visibility 10 miles    
Events      
Averages and records for this station are not official NWS values.
T = Trace of Precipitation, MM = Missing Value Source: NWS Daily Summary

Daily Weather History Graph

Daily Weather History Graph

Search for Another Location

Airport or City:

Trip Planner

Search our weather history database for the weather conditions in past years. The results will help you decide how hot, cold, wet, or windy it might be!

Date:

Astronomy

Jan. 07, 2013 Rise Set
Actual Time 8:14 AM EST 5:29 PM EST
Civil Twilight 7:42 AM EST 6:00 PM EST
Nautical Twilight 7:07 AM EST 6:35 PM EST
Astronomical Twilight 6:33 AM EST 7:09 PM EST
Moon 3:35 AM EST (1/7) 1:40 PM EST (1/7)
Length of Visible Light 10h 18m
Length of Day
9h 15m
Waning Crescent, 23% of the Moon is Illuminated
Jan 7
Waning Crescent
Jan 11
New
Jan 18
First Quarter
Jan 26
Full
Feb 3
Last Quarter

Hourly Weather History & Observations

Time (EST) Temp. Windchill Dew Point Humidity Pressure Visibility Wind Dir Wind Speed Gust Speed Precip Events Conditions
12:35 AM 33.8 °F - 23.0 °F 65% 30.29 in 10.0 mi Calm Calm - N/A   Overcast
12:54 AM 33.8 °F 29.6 °F 24.8 °F 70% 30.28 in 10.0 mi WSW 4.6 mph - N/A   Overcast
1:15 AM 33.8 °F 28.6 °F 24.8 °F 70% 30.28 in 10.0 mi West 5.8 mph - N/A   Overcast
1:34 AM 33.4 °F 27.3 °F 24.8 °F 71% 30.29 in 10.0 mi West 6.9 mph - N/A   Overcast
1:55 AM 33.1 °F 30.0 °F 25.2 °F 73% 30.28 in 10.0 mi WSW 3.5 mph - N/A   Overcast
2:15 AM 32.9 °F - 24.8 °F 72% 30.29 in 10.0 mi Calm Calm - N/A   Overcast
2:34 AM 32.7 °F 28.3 °F 25.0 °F 73% 30.30 in 10.0 mi SSW 4.6 mph - N/A   Overcast
2:55 AM 32.9 °F 29.8 °F 25.7 °F 75% 30.30 in 10.0 mi WSW 3.5 mph - N/A   Overcast
3:14 AM 32.4 °F 26.0 °F 25.7 °F 76% 30.31 in 10.0 mi SW 6.9 mph - N/A   Overcast
3:35 AM 32.0 °F 26.4 °F 25.5 °F 77% 30.31 in 10.0 mi SW 5.8 mph - N/A   Overcast
3:55 AM 32.0 °F 26.4 °F 25.5 °F 77% 30.31 in 10.0 mi SW 5.8 mph - N/A   Mostly Cloudy
4:15 AM 30.9 °F 25.2 °F 25.7 °F 81% 30.31 in 10.0 mi SSW 5.8 mph - N/A   Scattered Clouds
4:35 AM 30.2 °F 24.3 °F 25.7 °F 83% 30.31 in 10.0 mi SSW 5.8 mph - N/A   Scattered Clouds
4:54 AM 29.7 °F 23.7 °F 25.7 °F 85% 30.30 in 7.0 mi South 5.8 mph - N/A   Scattered Clouds
5:15 AM 28.8 °F 21.7 °F 25.7 °F 88% 30.31 in 7.0 mi SSW 6.9 mph - N/A   Clear
5:34 AM 28.0 °F 22.8 °F 25.3 °F 90% 30.31 in 5.0 mi SSW 4.6 mph - N/A   Clear
5:55 AM 27.5 °F 21.1 °F 24.1 °F 87% 30.31 in 7.0 mi SSW 5.8 mph - N/A   Clear
6:15 AM 26.8 °F 19.3 °F 23.0 °F 86% 30.31 in 7.0 mi SSW 6.9 mph - N/A   Clear
6:34 AM 26.2 °F 16.4 °F 22.5 °F 86% 30.31 in 7.0 mi SSW 10.4 mph - N/A   Clear
6:55 AM 25.5 °F 16.2 °F 21.9 °F 86% 30.32 in 7.0 mi SSW 9.2 mph - N/A   Clear
7:34 AM 24.8 °F 14.6 °F 21.2 °F 86% 30.32 in 7.0 mi SSW 10.4 mph - N/A   Clear
7:55 AM 24.6 °F 16.7 °F 21.0 °F 86% 30.33 in 7.0 mi SSW 6.9 mph - N/A   Clear
8:14 AM 24.4 °F 16.5 °F 20.3 °F 84% 30.32 in 7.0 mi SSW 6.9 mph - N/A   Clear
8:35 AM 24.1 °F 13.7 °F 20.1 °F 85% 30.32 in 7.0 mi SSW 10.4 mph - N/A   Clear
8:55 AM 24.8 °F 15.3 °F 19.4 °F 80% 30.32 in 10.0 mi SSW 9.2 mph - N/A   Clear
9:14 AM 25.5 °F 15.5 °F 18.9 °F 76% 30.32 in 10.0 mi South 10.4 mph - N/A   Clear
9:35 AM 25.7 °F 15.7 °F 18.5 °F 74% 30.32 in 10.0 mi SSW 10.4 mph 16.1 mph N/A   Clear
10:15 AM 27.3 °F 17.1 °F 18.5 °F 69% 30.32 in 10.0 mi SSW 11.5 mph 17.3 mph N/A   Clear
10:34 AM 28.0 °F 17.0 °F 18.3 °F 67% 30.32 in 10.0 mi SSW 13.8 mph 20.7 mph N/A   Clear
10:55 AM 28.8 °F 19.5 °F 18.3 °F 65% 30.31 in 10.0 mi SSW 10.4 mph 18.4 mph N/A   Clear
11:14 AM 29.5 °F 21.1 °F 17.8 °F 62% 30.31 in 10.0 mi SSW 9.2 mph 19.6 mph N/A   Clear
11:35 AM 30.2 °F 20.2 °F 17.8 °F 60% 30.30 in 10.0 mi South 12.7 mph 18.4 mph N/A   Clear
11:55 AM 31.1 °F 21.9 °F 16.9 °F 56% 30.27 in 10.0 mi South 11.5 mph 20.7 mph N/A   Clear
12:14 PM 32.0 °F 21.6 °F 17.2 °F 55% 30.25 in 10.0 mi South 15.0 mph 20.7 mph N/A   Clear
12:35 PM 33.1 °F 24.4 °F 16.5 °F 51% 30.24 in 10.0 mi South 11.5 mph 24.2 mph N/A   Clear
12:55 PM 34.5 °F 24.5 °F 16.5 °F 48% 30.21 in 10.0 mi South 16.1 mph 24.2 mph N/A   Clear
1:15 PM 35.2 °F 26.2 °F 16.5 °F 47% 30.20 in 10.0 mi South 13.8 mph 19.6 mph N/A   Clear
1:35 PM 35.6 °F 27.1 °F 15.6 °F 44% 30.19 in 10.0 mi South 12.7 mph 20.7 mph N/A   Clear
2:15 PM 36.7 °F 29.4 °F 14.7 °F 41% 30.19 in 10.0 mi SSW 10.4 mph - N/A   Clear
2:35 PM 37.2 °F 29.6 °F 15.8 °F 42% 30.18 in 10.0 mi South 11.5 mph 20.7 mph N/A   Clear
2:55 PM 36.9 °F 30.1 °F 16.2 °F 43% 30.18 in 10.0 mi SSW 9.2 mph 18.4 mph N/A   Clear
3:15 PM 36.5 °F 28.2 °F 16.7 °F 45% 30.18 in 10.0 mi South 12.7 mph 17.3 mph N/A   Clear
3:34 PM 36.7 °F 30.5 °F 17.4 °F 46% 30.18 in 10.0 mi SSW 8.1 mph 16.1 mph N/A   Clear
3:55 PM 36.7 °F 28.4 °F 18.5 °F 48% 30.17 in 10.0 mi SSW 12.7 mph 24.2 mph N/A   Clear
4:15 PM 36.5 °F 29.2 °F 19.4 °F 50% 30.17 in 10.0 mi South 10.4 mph - N/A   Clear
4:34 PM 36.0 °F 29.6 °F 20.8 °F 54% 30.17 in 10.0 mi SSW 8.1 mph - N/A   Clear
4:54 PM 35.4 °F 27.3 °F 21.2 °F 56% 30.16 in 10.0 mi South 11.5 mph 20.7 mph N/A   Clear
5:15 PM 34.2 °F 25.7 °F 21.9 °F 61% 30.16 in 10.0 mi South 11.5 mph 18.4 mph N/A   Clear
5:35 PM 33.3 °F 24.1 °F 22.5 °F 65% 30.15 in 10.0 mi South 12.7 mph 17.3 mph N/A   Clear
6:15 PM 32.0 °F 22.5 °F 23.0 °F 69% 30.14 in 10.0 mi South 12.7 mph 18.4 mph N/A   Clear
6:34 PM 32.0 °F 23.6 °F 23.0 °F 69% 30.13 in 10.0 mi South 10.4 mph 18.4 mph N/A   Clear
6:55 PM 32.0 °F 23.0 °F 23.4 °F 70% 30.12 in 10.0 mi South 11.5 mph 20.7 mph N/A   Clear
7:15 PM 32.2 °F 22.7 °F 23.0 °F 69% 30.12 in 10.0 mi South 12.7 mph - N/A   Clear
7:34 PM 32.2 °F 23.8 °F 23.0 °F 69% 30.12 in 10.0 mi South 10.4 mph 17.3 mph N/A   Clear
7:55 PM 32.2 °F 22.7 °F 23.0 °F 69% 30.11 in 10.0 mi South 12.7 mph 19.6 mph N/A   Clear
8:15 PM 32.0 °F 24.2 °F 22.8 °F 69% 30.11 in 10.0 mi SSW 9.2 mph 23.0 mph N/A   Clear
8:35 PM 32.0 °F 24.2 °F 22.6 °F 68% 30.12 in 10.0 mi SSW 9.2 mph 18.4 mph N/A   Clear
8:54 PM 32.0 °F 24.8 °F 22.6 °F 68% 30.12 in 10.0 mi SSW 8.1 mph - N/A   Clear
9:15 PM 31.8 °F 24.6 °F 22.5 °F 68% 30.12 in 10.0 mi SSW 8.1 mph - N/A   Clear
9:35 PM 31.5 °F 24.9 °F 22.3 °F 69% 30.12 in 10.0 mi SSW 6.9 mph - N/A   Clear
9:55 PM 31.1 °F 24.5 °F 22.3 °F 70% 30.12 in 10.0 mi SSW 6.9 mph - N/A   Clear
10:35 PM 30.9 °F 25.2 °F 22.3 °F 70% 30.12 in 10.0 mi SSW 5.8 mph - N/A   Clear
10:54 PM 30.9 °F 24.3 °F 22.3 °F 70% 30.13 in 10.0 mi SSW 6.9 mph - N/A   Clear
11:15 PM 30.7 °F 24.1 °F 22.5 °F 71% 30.13 in 10.0 mi SSW 6.9 mph - N/A   Clear
11:55 PM 31.1 °F 23.7 °F 22.6 °F 71% 30.14 in 10.0 mi SSW 8.1 mph 16.1 mph N/A   Clear